Regional Weather Roundup
Issued by NWS Charleston, SC

Current Version | Previous Version | Graphics & Text | Print | Product List | Glossary On
Versions: 1 2 3 4 5 6 7 8 9 10 11 12 13 14 15 16 17 18 19 20 21 22 23 24 25 26 27 28 29 30 31 32 33 34 35 36 37 38 39 40 41 42 43 44 45 46 47 48 49 50
000
ASUS42 KCHS 201927
RWRCHS

Regional Weather Roundup
National Weather Service Charleston SC
200 PM EST SAT JAN 20 2018

NOTE: "fair" indicates few or no clouds below 12,000 feet with no
significant weather and/or obstructions to visibility.

Not all stations are quality controlled. Use data with caution,
especially dewpoint observations.

SCZ027-030-031-034>040-042>050-202000-
...Southeast South Carolina...

CITY           SKY/WX    TMP DP  RH WIND       PRES   REMARKS
N Charleston   FAIR      64  23  21 W9        30.21F
Waterfront Prk NOT AVBL
Mount Pleasant FAIR      61  34  36 S6        30.20F
Johns Island   FAIR      59  28  31 S12       30.22F
Pinopolis        N/A     55  32  41 SW8       30.10F
Moncks Corner  FAIR      63  19  19 SW13      30.20S
Summerville    FAIR      63  27  25 SW5       30.20F
Beaufort MCAS  FAIR      63  28  26 SW10      30.23F
Beaufort Arpt  FAIR      59  28  31 S7        30.21F
Hilton Head Is SUNNY     57  30  35 S6        30.25F
Walterboro     FAIR      63  30  29 SW14      30.21F
Allendale      FAIR      63  36  36 VRB7G15   30.19F

...Southern Midlands and Pee Dee...

CITY           SKY/WX    TMP DP  RH WIND       PRES   REMARKS
Georgetown     FAIR      63  12  14 SW12      30.20S
Kingstree      FAIR      64  25  22 SW9       30.16F
Orangeburg     FAIR      61  32  33 W10       30.19F
Barnwell         N/A     64  37  36 W8        30.19F
Aiken          FAIR      59  32  36 W6        30.22F
Manning        FAIR     N/A N/A N/A MISG      30.18S
Columbia       FAIR      62  30  29 W12       30.18F
Sumter         FAIR      60  29  30 W3        30.15F
Florence       FAIR      61  31  32 W9        30.16F
Myrtle Beach   FAIR      55  30  38 S12       30.19F
N Myrtle Beach FAIR      54  30  40 S13       30.18F

$$

GAZ063-065-086>088-099>101-113>116-118-119-134>141-150-202000-
...Southeast Georgia...

CITY           SKY/WX    TMP DP  RH WIND       PRES   REMARKS
Savannah Arpt  FAIR      63  22  20 SW8       30.23F
Hunter AAF     FAIR      64  12  13 W12       30.20F
Fort Stewart   FAIR      62  17  17 W7        30.23F
Statesboro     FAIR      64  28  25 W6        30.22F
Sylvania       FAIR      64  39  40 W7        30.22F
Claxton        FAIR      64  32  29 W10       30.22F

...CSRA, Central and far Southeast Georgia...

CITY           SKY/WX    TMP DP  RH WIND       PRES   REMARKS
Thomson        FAIR      62  37  38 NW6       30.25S
Augusta-Bush   FAIR      65  37  35 VRB7      30.19F
Augusta-Daniel FAIR      62  37  39 VRB7      30.20F
Swainsboro     FAIR      63  41  45 NW6G16    30.22F
Vidalia        FAIR      64  37  36 NW7       30.22F
Eastman        FAIR      65  23  20 N5        30.24F
Hazlehurst     FAIR      64  20  18 CALM      30.22F
Alma           FAIR      62  15  16 VRB3      30.24F
Waycross       FAIR      62  -2   7 NW5       30.25F
Jesup          FAIR      63   9  12 W6        30.25F
Baxley         FAIR      59  28  31 W6        30.23F
Brunswick      FAIR      61  16  17 SW5       30.25F
Saint Simons   FAIR      59  20  22 VRB3      30.26F

$$

SCZ027-028-034-036>038-045-046-048>050-GAZ119-141-202000-
...Lake and Supplemental Coastal Observations...

STATION/POSITION TIME  TEMP    WIND        PRES    WAVE   SWELL
                       AIR SEA DIR/SP/G            HT/PER HT/PER/DIR
                 (UTC) (F)     (DEG/KT/KT) (MB)    (FT/S) (FT/S/D)
Winyah Bay       1830   57     190/ 10     1023.0S
Lake Murray      1850   52     190/  7/  8 1021.3F
ACE Basin NERRS  1845   60     210/  2     1023.0F
Fort Pulaski     1900   58 45  160/  5/  8 1023.8
Sapelo Island    1900   58     240/  5     1024.0

$$

ANZ835-935-AMZ111-154-330-350-352-354-370-450-454-472-202000-
...C-MAN and Buoy Observations...

STATION/POSITION TIME  TEMP    WIND        PRES    WAVE   SWELL
                       AIR SEA DIR/SP/G            HT/PER HT/PER/DIR
                 (UTC) (F)     (DEG/KT/KT) (MB)    (FT/S) (FT/S/D)
Buoy 41004       1910   58 69  240/ 12/ 16 1023.4
Buoy 41008       1850   51 51  240/  2/  2 1024.5F   1/10   2/100/10
Folly Beach CMAN 1900   49     210/ 11/ 12 1023.8F
Capers Nearshore 1908   47 47  220/ 12/ 16 1023.0F
Fripp Nearshore  1908   47 46  210/  8/ 10 1023.3F


STATION/POSITION TIME  TEMP    WIND        PRES    WAVE   SWELL
                       AIR SEA DIR/SP/G            HT/PER HT/PER/DIR
                 (UTC) (F)     (DEG/KT/KT) (MB)    (FT/S) (FT/S/D)
5E St. Marys GA  1900      49                N/A     1/12   2/ 90/12
Frying Pan Buoy  1910   57 58  240/ 14/ 17 1022.4
Buoy 41025       1910   61 69  240/ 23/ 27 1020.3
Cape Lookout NC  1900          220/ 12/ 16 1021.1F
Buoy 41002       1850   67 70  230/ 12/ 14 1023.8F   4/10   3/ 50/10
Buoy 41010       NOT AVBL
St Augustine FL  1900   51 51  360/  6/  6 1025.6F


$$



USA.gov is the U.S. government's official web portal to all federal, state and local government web resources and services.